Weather History for KDRO - September, 2013

Change the Weather History Date:

Wednesday, September 11, 2013

  Actual Average Record
Temperature  
Mean Temperature 62 °F 60 °F  
Max Temperature 72 °F 77 °F 90 °F (1990)
Min Temperature 52 °F 44 °F 32 °F (1986)
Degree Days  
Heating Degree Days 3 5  
Month to date heating degree days 8 37  
Since 1 July heating degree days 21 66  
Cooling Degree Days 0 0  
Month to date cooling degree days 39 3  
Year to date cooling degree days 388 240  
Growing Degree Days 14 (Base 50)    
Moisture  
Dew Point 55 °F    
Average Humidity 74    
Maximum Humidity 100    
Minimum Humidity 47    
Precipitation  
Precipitation 0.52 in 0.07 in 1.13 in (2002)
Month to date precipitation 1.90 0.69  
Year to date precipitation 10.11 10.66  
Sea Level Pressure  
Sea Level Pressure 30.13 in    
Wind  
Wind Speed 3 mph (ENE)    
Max Wind Speed 9 mph    
Max Gust Speed 13 mph    
Visibility 8 miles    
Events Rain    
T = Trace of Precipitation, MM = Missing Value Source: NWS Daily Summary

Daily Weather History Graph

Daily Weather History Graph

Search for Another Location

Airport or City:

Trip Planner

Search our weather history database for the weather conditions in past years. The results will help you decide how hot, cold, wet, or windy it might be!

Date:

Astronomy

Sep. 11, 2013 Rise Set
Actual Time 6:50 AM MDT 7:24 PM MDT
Civil Twilight 6:23 AM MDT 7:50 PM MDT
Nautical Twilight 5:53 AM MDT 8:21 PM MDT
Astronomical Twilight 5:21 AM MDT 8:52 PM MDT
Moon 1:12 PM MDT (9/11) 11:32 PM MDT (9/11)
Length of Visible Light 13h 26m
Length of Day
12h 34m
Waxing Crescent, 39% of the Moon is Illuminated
Sep 11
Waxing Crescent
Sep 12
First Quarter
Sep 19
Full
Sep 26
Last Quarter
Oct 4
New

Hourly Weather History & Observations

Time (MDT) Temp. Dew Point Humidity Pressure Visibility Wind Dir Wind Speed Gust Speed Precip Events Conditions
12:53 AM 57.0 °F 55.9 °F 96% 30.06 in 4.0 mi Calm Calm - 0.02 in Rain Light Rain
1:04 AM 57.2 °F 55.4 °F 94% 30.23 in 10.0 mi ENE 4.6 mph - 0.00 in Rain Light Rain
1:53 AM 57.0 °F 55.0 °F 93% 30.05 in 10.0 mi East 5.8 mph - 0.00 in   Overcast
2:53 AM 57.0 °F 55.0 °F 93% 30.06 in 10.0 mi ENE 5.8 mph - 0.01 in Rain Light Rain
3:04 AM 57.2 °F 55.4 °F 94% 30.22 in 10.0 mi ENE 3.5 mph - 0.00 in   Overcast
3:53 AM 55.9 °F 55.0 °F 97% 30.05 in 4.0 mi ENE 4.6 mph - 0.05 in Rain Heavy Rain
4:36 AM 55.4 °F 55.4 °F 100% 30.22 in 2.5 mi Calm Calm - 0.08 in Rain Rain
4:43 AM 55.4 °F 55.4 °F 100% 30.22 in 5.0 mi Calm Calm - 0.08 in Rain Light Rain
4:53 AM 55.9 °F 55.0 °F 97% 30.04 in 5.0 mi ENE 4.6 mph - 0.10 in Rain Rain
5:53 AM 55.9 °F 55.0 °F 97% 30.06 in 6.0 mi East 3.5 mph - 0.09 in Rain Light Rain
6:02 AM 55.4 °F 55.4 °F 100% 30.23 in 3.0 mi East 4.6 mph - 0.04 in Rain Heavy Rain
6:41 AM 55.4 °F 55.4 °F 100% 30.23 in 10.0 mi Calm Calm - 0.09 in   Overcast
6:53 AM 55.9 °F 55.0 °F 97% 30.07 in 10.0 mi Calm Calm - 0.10 in Rain Light Rain
7:31 AM 57.2 °F 55.4 °F 94% 30.25 in 10.0 mi East 4.6 mph - 0.00 in   Overcast
7:53 AM 57.0 °F 55.9 °F 96% 30.08 in 10.0 mi East 4.6 mph - 0.00 in   Overcast
8:44 AM 57.2 °F 57.2 °F 100% 30.27 in 1.8 mi East 4.6 mph - 0.09 in Rain Heavy Rain
8:49 AM 57.2 °F 57.2 °F 100% 30.27 in 1.8 mi ESE 6.9 mph - 0.12 in Rain Rain
8:53 AM 57.9 °F 57.0 °F 97% 30.09 in 1.8 mi ESE 5.8 mph - 0.16 in Rain Heavy Rain
9:01 AM 57.2 °F 57.2 °F 100% 30.27 in 3.0 mi East 3.5 mph - 0.01 in Rain Light Rain
9:53 AM 60.1 °F 57.9 °F 93% 30.09 in 9.0 mi ESE 4.6 mph - 0.01 in Rain Light Rain
10:19 AM 60.8 °F 57.2 °F 88% 30.28 in 10.0 mi Calm Calm - 0.00 in   Overcast
10:29 AM 60.8 °F 57.2 °F 88% 30.28 in 10.0 mi Calm Calm - 0.00 in   Overcast
10:53 AM 60.1 °F 55.9 °F 86% 30.10 in 10.0 mi West 6.9 mph - 0.00 in   Overcast
11:08 AM 60.8 °F 55.4 °F 82% 30.28 in 10.0 mi WNW 4.6 mph - 0.00 in   Overcast
11:53 AM 64.0 °F 55.0 °F 73% 30.07 in 10.0 mi Calm Calm - 0.00 in   Partly Cloudy
12:10 PM 64.4 °F 57.2 °F 77% 30.28 in 10.0 mi West 4.6 mph - N/A   Mostly Cloudy
12:24 PM 64.4 °F 53.6 °F 68% 30.27 in 10.0 mi Calm Calm - N/A   Mostly Cloudy
12:53 PM 68.0 °F 55.0 °F 63% 30.04 in 10.0 mi North 4.6 mph - N/A   Partly Cloudy
1:53 PM 66.9 °F 54.0 °F 63% 30.04 in 10.0 mi WSW 4.6 mph - N/A   Mostly Cloudy
2:53 PM 69.1 °F 53.1 °F 57% 30.02 in 10.0 mi Calm Calm - N/A   Scattered Clouds
3:53 PM 71.1 °F 50.0 °F 47% 29.99 in 10.0 mi Calm Calm - N/A   Partly Cloudy
4:53 PM 69.1 °F 54.0 °F 58% 29.99 in 10.0 mi SE 4.6 mph - N/A   Overcast
5:53 PM 72.0 °F 51.1 °F 48% 29.98 in 10.0 mi WSW 4.6 mph - N/A   Partly Cloudy
6:53 PM 70.0 °F 50.0 °F 49% 29.98 in 10.0 mi Calm Calm - N/A   Partly Cloudy
7:53 PM 66.0 °F 51.1 °F 59% 30.01 in 10.0 mi Calm Calm - N/A   Clear
8:53 PM 60.1 °F 53.1 °F 78% 30.05 in 10.0 mi North 5.8 mph - N/A   Clear
9:53 PM 57.0 °F 53.1 °F 87% 30.06 in 10.0 mi Calm Calm - N/A   Clear
10:53 PM 55.9 °F 51.1 °F 84% 30.07 in 10.0 mi North 3.5 mph - N/A   Clear
11:53 PM 55.0 °F 50.0 °F 83% 30.06 in 10.0 mi North 3.5 mph - N/A   Clear